Springfield, IL

8:21 PM CST on November 22, 2019 (GMT -0600)
Capital

Weather History for KSPI - August, 2019

Change the Weather History Date:

Tuesday, August 27, 2019

  Actual Average Record
Temperature  
Mean Temperature 71 °F 73 °F  
Max Temperature 81 °F 84 °F 97 °F (1983)
Min Temperature 60 °F 62 °F 51 °F (1967)
Degree Days  
Heating Degree Days 0 0  
Month to date heating degree days 0 0  
Since 1 June heating degree days 4 16  
Since 1 July heating degree days 0 1  
Cooling Degree Days 6 8  
Month to date cooling degree days 251 259  
Year to date cooling degree days 1020 938  
Since 1 June cooling degree days 896 834  
Growing Degree Days 22 (Base 50)    
Moisture  
Dew Point 65 °F    
Average Humidity 76    
Maximum Humidity 100    
Minimum Humidity 51    
Precipitation  
Precipitation 0.00 in 0.11 in 0.67 in (1907)
Month to date precipitation 3.92 2.83  
Year to date precipitation 33.49 25.24  
Snow  
Snow 0.00 in 0.00 in 0.00 in ()
Month to date snowfall 0.0 0.0  
Since 1 June snowfall 0.0 0.0  
Since 1 July snowfall 0.0 0.0  
Snow Depth 0.00 in    
Sea Level Pressure  
Sea Level Pressure 29.88 in    
Wind  
Wind Speed 7 mph (West)    
Max Wind Speed 17 mph    
Max Gust Speed 24 mph    
Visibility 10 miles    
Events      
T = Trace of Precipitation, MM = Missing Value Source: NWS Daily Summary

Daily Weather History Graph

Daily Weather History Graph

Search for Another Location

Airport or City:

Astronomy

Aug. 27, 2019 Rise Set
Actual Time 6:21 AM CDT 7:38 PM CDT
Civil Twilight 5:53 AM CDT 8:06 PM CDT
Nautical Twilight 5:20 AM CDT 8:39 PM CDT
Astronomical Twilight 4:44 AM CDT 9:14 PM CDT
Moon 2:46 AM CDT (8/27) 5:58 PM CDT (8/27)
Length of Visible Light 14h 12m
Length of Day
13h 16m
Waning Crescent, 11% of the Moon is Illuminated
Aug 27
Waning Crescent
Aug 30
New
Sep 5
First Quarter
Sep 13
Full
Sep 21
Last Quarter

Hourly Weather History & Observations

Time (CDT) Temp. Heat Index Dew Point Humidity Pressure Visibility Wind Dir Wind Speed Gust Speed Precip Events Conditions
12:10 AM 70.0 °F - 69.1 °F 97% 29.80 in 10.0 mi West 4.6 mph - N/A   Overcast
12:52 AM 70.0 °F - 69.1 °F 97% 29.81 in 10.0 mi West 5.8 mph - N/A   Overcast
1:07 AM 70.0 °F - 69.1 °F 97% 29.82 in 10.0 mi WNW 4.6 mph - N/A   Overcast
1:19 AM 70.0 °F - 68.0 °F 93% 29.82 in 10.0 mi WNW 3.5 mph - N/A   Mostly Cloudy
1:52 AM 70.0 °F - 69.1 °F 97% 29.81 in 10.0 mi West 3.5 mph - N/A   Overcast
2:52 AM 70.0 °F - 68.0 °F 93% 29.81 in 10.0 mi WNW 5.8 mph - N/A   Overcast
3:52 AM 69.1 °F - 68.0 °F 96% 29.82 in 10.0 mi WNW 6.9 mph - N/A   Mostly Cloudy
4:52 AM 68.0 °F - 66.9 °F 96% 29.83 in 10.0 mi West 4.6 mph - N/A   Scattered Clouds
5:52 AM 66.9 °F - 66.0 °F 97% 29.84 in 9.0 mi WNW 5.8 mph - N/A   Clear
6:52 AM 66.0 °F - 66.0 °F 100% 29.85 in 7.0 mi West 4.6 mph - N/A   Clear
7:06 AM 66.0 °F - 66.0 °F 100% 29.87 in 5.0 mi WNW 5.8 mph - N/A   Partly Cloudy
7:52 AM 66.9 °F - 66.0 °F 97% 29.87 in 8.0 mi WNW 5.8 mph - N/A   Partly Cloudy
8:52 AM 70.0 °F - 66.9 °F 90% 29.88 in 10.0 mi Variable 5.8 mph - N/A   Clear
9:52 AM 73.9 °F - 66.0 °F 76% 29.89 in 10.0 mi West 6.9 mph - N/A   Clear
10:52 AM 77.0 °F - 68.0 °F 74% 29.90 in 10.0 mi WSW 6.9 mph - N/A   Partly Cloudy
11:52 AM 78.1 °F - 66.0 °F 66% 29.89 in 10.0 mi WSW 9.2 mph - N/A   Clear
12:52 PM 78.1 °F - 64.0 °F 62% 29.89 in 10.0 mi WNW 11.5 mph 20.7 mph N/A   Partly Cloudy
1:52 PM 81.0 °F 82.5 °F 64.0 °F 56% 29.90 in 10.0 mi West 13.8 mph 21.9 mph N/A   Scattered Clouds
2:52 PM 80.1 °F 81.7 °F 64.0 °F 58% 29.91 in 10.0 mi WNW 9.2 mph 18.4 mph N/A   Clear
3:52 PM 80.1 °F 81.2 °F 62.1 °F 54% 29.90 in 10.0 mi West 12.7 mph 18.4 mph N/A   Partly Cloudy
4:52 PM 80.1 °F 81.1 °F 61.0 °F 52% 29.90 in 10.0 mi West 10.4 mph - N/A   Clear
5:52 PM 78.1 °F - 60.1 °F 54% 29.92 in 10.0 mi West 11.5 mph - N/A   Partly Cloudy
6:52 PM 73.9 °F - 61.0 °F 64% 29.94 in 10.0 mi West 6.9 mph - N/A   Clear
7:52 PM 68.0 °F - 62.1 °F 81% 29.94 in 10.0 mi West 5.8 mph - N/A   Clear
8:52 PM 64.9 °F - 62.1 °F 90% 29.96 in 10.0 mi WSW 4.6 mph - N/A   Clear
9:52 PM 64.0 °F - 61.0 °F 90% 29.97 in 10.0 mi NW 3.5 mph - N/A   Clear
10:52 PM 64.9 °F - 60.1 °F 84% 29.98 in 10.0 mi WSW 5.8 mph - N/A   Clear
11:52 PM 62.1 °F - 59.0 °F 90% 29.98 in 10.0 mi West 4.6 mph - N/A   Clear